Showing default

OPTISAT, 68418

Orbit data source: Space-Track

OPTISAT, 68418 is a Greek payload satellite in SSO that was launched on Mon, 30 Mar 2026 UTC via an FALCON 9 launch vehicle from the Air Force Western Test Range (AFWTR). Payload-class satellites include a variety of spacecraft equipped with specific instruments for various scientific and technological missions. These include communications satellites like Starlink; space stations such as the ISS; scientific satellites like the Hubble; Earth observation satellites from companies like Planet Labs, Umbra, and HawkEye 360; GPS; miniature CubeSats for education and research; and military/defense satellites.

Loading next visibility...
Identifier
68418, 2026-067C
Orbit
SSO
Country
Flag of GRGR / GREC
Related business
Manufacturer
PLANH
Mission
Operational spacecraft
Bus & Motor
CUBESAT 6U, Unknown motor
Mass
~10 kg wet, ~10 kg dry
Launch date (UTC)
2026-03-30 (3 months ago)
Launch vehicle
FALCON 9
Launch site
Air Force Western Test Range (AFWTR)
Object type
Payload
Rocket body
Debris
Shape & HBR
Unknown shape, 0.2 m
Radar Cross Section
Medium (>0.1 m² and <1 m²)

Expand to show TLE details & history
Last TLE update: 11 hours ago

TLE from 11 hours ago
0 OPTISAT
1 68418U 26067C   26171.40146383  .00003839  00000-0  18695-3 0  9999
2 68418  97.4586 129.9417 0000629 328.4245  31.6951 15.18961046 12432
Epoch: 2026-06-20T09:38Z
TLE epoch observation values (Epoch: 2026-06-20T09:38:06.474Z)
Latitude
-0.00011°
Longitude
76.79813°
Altitude
511.698 km
Speed
7.608 km/s
True Right ascension
08h 39m 46s
True Declination
0° 00' 00"
Sunlit
Object was in daylight at epoch
Visualization orbit readout
Latitude
Unknown
Longitude
Unknown
Altitude
Unknown
Speed
Unknown
Apparent Right ascension
Unknown
Apparent Declination
Unknown
Sunlit
N/A
Visualization observer readout
Local Sidereal Time
07:13:16
Azimuth
Unknown
Elevation
Unknown
Doppler factor
Unknown
Orbital elements
Apogee altitude
506.382 km
Perigee altitude
505.516 km
Semi-major axis
6,884.086 km
Eccentricity
0.00006
Inclination
97.4586°
RAAN
129.9417°
Arg. of periapsis
328.4245°
True anomaly
31.69889°
Mean anomaly
31.6951°
Eccentric anomaly
31.69699°
Mean motion
3.79991 °/min
Orbital period
94.74 mins
BSTAR
0.00018695
Loading maneuver chart data...
Computing Atmospheric mass density...
Loading historical data...
Loading historical data...
Loading historical data...
Loading historical data...
Loading historical data...
Loading historical data...
Loading historical data...

Documentation

Showing up to 5 results
|